GW7291 Weather Reports


time (UTC)temp
F
wind
direction
speed
knots
gust
knots
rain 1hr
in
rain 24hr
in
rain mn
in
humidity
%
barometer
mb
20260507060221 46 22 0.0 0.0 0.00 0.00 0.00 84 1020.4
20260507055717 46 22 0.0 0.0 0.00 0.00 0.00 83 1020.3
20260507055212 46 22 0.0 0.0 0.00 0.00 0.00 82 1020.1
20260507054709 47 22 0.0 0.0 0.00 0.00 0.00 81 1020.0
20260507054206 48 22 0.0 0.0 0.00 0.00 0.00 80 1020.4
20260507053704 49 22 0.0 0.0 0.00 0.00 0.00 77 1020.3
20260507053202 49 21 0.0 0.0 0.00 0.00 0.00 78 1020.4
20260507052700 49 21 0.0 0.0 0.00 0.00 0.00 77 1020.1
20260507052155 49 22 0.0 0.0 0.00 0.00 0.00 76 1019.9
20260507051653 50 22 0.0 0.0 0.00 0.00 0.00 75 1020.0
20260507051149 50 22 0.0 0.0 0.00 0.00 0.00 73 1019.8
20260507050647 49 22 0.0 0.0 0.00 0.00 0.00 72 1019.9
20260507050144 49 22 0.0 0.0 0.00 0.00 0.00 72 1020.0
20260507045641 49 22 0.0 0.0 0.00 0.00 0.00 71 1020.0
20260507045137 50 21 0.0 0.0 0.00 0.00 0.00 69 1019.7
20260507044634 50 36 0.0 0.0 0.00 0.00 0.00 68 1019.7
20260507044131 50 38 0.0 0.0 0.00 0.00 0.00 68 1019.6
20260507043627 51 32 0.0 0.0 0.00 0.00 0.00 67 1019.4
20260507043124 51 38 0.0 0.9 0.00 0.00 0.00 66 1019.4
20260507042620 51 55 0.0 0.9 0.00 0.00 0.00 67 1019.1
20260507042115 51 57 0.0 0.0 0.00 0.00 0.00 66 1019.2
20260507041613 52 47 0.0 0.9 0.00 0.00 0.00 65 1019.1
20260507041109 52 42 0.0 0.9 0.00 0.00 0.00 66 1019.0
20260507040607 51 55 0.9 2.6 0.00 0.00 0.00 66 1018.9
20260507035558 51 56 0.0 0.0 0.00 0.00 0.00 68 1018.8
20260507035055 51 54 0.0 0.0 0.00 0.00 0.00 67 1019.2
20260507034552 52 53 0.0 0.0 0.00 0.00 0.00 66 1019.2
20260507034050 52 54 0.0 0.0 0.00 0.00 0.00 66 1019.1
20260507033548 52 53 0.0 0.0 0.00 0.00 0.00 66 1019.2
20260507033044 52 49 0.0 1.7 0.00 0.00 0.00 65 1019.0
20260507032541 52 52 0.0 0.0 0.00 0.00 0.00 66 1019.0
20260507032037 52 52 0.0 0.0 0.00 0.00 0.00 66 1019.0
20260507031534 52 40 0.0 0.9 0.00 0.00 0.00 66 1018.8
20260507031031 52 51 0.0 0.9 0.00 0.00 0.00 67 1018.8
20260507030528 52 43 0.0 0.9 0.00 0.00 0.00 68 1018.8
20260507030026 52 29 0.0 0.0 0.00 0.00 0.00 67 1018.9
20260507025523 52 29 0.0 0.0 0.00 0.00 0.00 67 1018.6
20260507025020 52 20 0.0 0.0 0.00 0.00 0.00 67 1018.7
20260507024518 52 19 0.0 0.0 0.00 0.00 0.00 66 1018.5
20260507024014 53 16 0.0 0.0 0.00 0.00 0.00 65 1018.3
20260507023510 53 14 0.0 0.0 0.00 0.00 0.00 66 1018.5
20260507023008 53 14 0.0 0.0 0.00 0.00 0.00 65 1018.3
20260507022505 53 14 0.0 0.0 0.00 0.00 0.00 64 1018.3
20260507022000 54 14 0.0 0.0 0.00 0.00 0.00 63 1018.1
20260507021455 54 14 0.0 0.0 0.00 0.00 0.00 62 1018.0
20260507020953 55 13 0.0 0.0 0.00 0.00 0.00 60 1018.0
20260507020450 56 24 0.0 0.0 0.00 0.00 0.00 59 1017.9
20260507015947 56 34 0.0 1.7 0.00 0.00 0.00 58 1017.9
20260507015445 56 54 0.0 1.7 0.00 0.00 0.00 58 1017.7
20260507014942 57 50 1.7 2.6 0.00 0.00 0.00 57 1017.7
20260507014438 57 38 0.0 2.6 0.00 0.00 0.00 56 1017.8
20260507013935 57 27 0.0 1.7 0.00 0.00 0.00 56 1017.6
20260507013431 58 10 0.0 2.6 0.00 0.00 0.00 55 1017.8
20260507012929 58 37 0.9 2.6 0.00 0.00 0.00 54 1017.6
20260507012426 59 15 1.7 3.5 0.00 0.00 0.00 53 1017.5
20260507011922 59 25 2.6 3.5 0.00 0.00 0.00 52 1017.4
20260507011420 59 34 1.7 6.1 0.00 0.00 0.00 52 1017.7
20260507010919 60 30 1.7 5.2 0.00 0.00 0.00 52 1017.6
20260507010415 60 19 1.7 5.2 0.00 0.00 0.00 52 1017.6
20260507005912 60 352 2.6 3.5 0.00 0.00 0.00 52 1017.5
20260507005409 60 38 0.0 2.6 0.00 0.00 0.00 52 1017.4
20260507004906 60 30 0.0 1.7 0.00 0.00 0.00 52 1017.5
20260507004403 60 47 0.0 6.1 0.00 0.00 0.00 52 1017.5
20260507003900 60 27 1.7 5.2 0.00 0.00 0.00 52 1017.7
20260507003355 60 38 0.9 6.1 0.00 0.00 0.00 52 1017.1
20260507002851 61 327 5.2 7.0 0.00 0.00 0.00 51 1017.2
20260507002347 61 16 1.7 6.1 0.00 0.00 0.00 50 1017.2
20260507001844 61 37 1.7 7.0 0.00 0.00 0.00 50 1017.1
20260507001341 61 356 2.6 6.1 0.00 0.00 0.00 50 1017.2
20260507000837 61 26 5.2 7.0 0.00 0.00 0.00 50 1017.1
20260507000333 61 24 0.9 5.2 0.00 0.00 0.00 51 1017.0
20260506235830 61 19 3.5 8.7 0.00 0.00 0.00 50 1016.8
20260506235326 62 13 3.5 5.2 0.00 0.00 0.00 51 1016.9
20260506234822 62 11 0.9 2.6 0.00 0.00 0.00 51 1016.8
20260506234320 62 347 0.9 2.6 0.00 0.00 0.00 51 1016.7
20260506233818 62 44 0.0 7.0 0.00 0.00 0.00 49 1016.6
20260506233313 62 341 0.0 2.6 0.00 0.00 0.00 51 1016.6
20260506232810 63 18 0.9 5.2 0.00 0.00 0.00 49 1016.6
20260506232306 63 343 2.6 3.5 0.00 0.00 0.00 49 1016.7
20260506231803 63 43 1.7 3.5 0.00 0.00 0.00 50 1016.5
20260506231301 62 37 1.7 7.0 0.00 0.00 0.00 50 1016.5
20260506230758 63 59 2.6 3.5 0.00 0.00 0.00 50 1016.4
20260506230255 63 346 0.9 5.2 0.00 0.00 0.00 48 1016.4
20260506225751 62 50 3.5 5.2 0.00 0.00 0.00 50 1016.4
20260506225248 63 330 5.2 7.0 0.00 0.00 0.00 49 1016.3
20260506224744 62 38 3.5 8.7 0.00 0.00 0.00 49 1016.2
20260506224242 62 343 3.5 7.0 0.00 0.00 0.00 49 1016.2
20260506223738 62 17 3.5 3.5 0.00 0.00 0.00 49 1016.1
20260506223234 63 6 2.6 7.8 0.00 0.00 0.00 49 1016.0
20260506222731 63 8 1.7 5.2 0.00 0.00 0.00 48 1015.9
20260506222226 64 344 3.5 7.8 0.00 0.00 0.00 48 1015.8
20260506221724 63 45 1.7 5.2 0.00 0.00 0.00 48 1015.9
20260506221222 63 45 0.0 5.2 0.00 0.00 0.00 50 1015.8
20260506220719 63 69 5.2 7.0 0.00 0.00 0.00 49 1015.9
20260506220214 63 31 1.7 6.1 0.00 0.00 0.00 49 1015.8
20260506215711 63 358 4.3 7.0 0.00 0.00 0.00 49 1015.8
20260506215207 62 332 7.0 8.7 0.00 0.00 0.00 49 1015.8
20260506214703 62 23 4.3 6.1 0.00 0.00 0.00 49 1016.0
20260506214201 63 358 5.2 8.7 0.00 0.00 0.00 48 1016.2
20260506213659 63 115 1.7 7.0 0.00 0.00 0.00 48 1016.2
20260506213156 62 32 2.6 7.0 0.00 0.00 0.00 49 1016.1
20260506212653 62 48 7.0 11.3 0.00 0.00 0.00 49 1016.2
20260506212148 61 23 2.6 7.0 0.00 0.00 0.00 51 1016.1
20260506211644 62 10 7.0 8.7 0.00 0.00 0.00 51 1016.3
20260506211141 63 47 6.1 9.6 0.00 0.00 0.00 50 1016.2
20260506210637 64 34 4.3 6.1 0.00 0.00 0.00 48 1016.2
20260506210134 63 30 0.9 3.5 0.00 0.00 0.00 48 1016.4
20260506205631 63 53 0.9 8.7 0.00 0.00 0.00 49 1016.3
20260506205126 63 11 5.2 7.8 0.00 0.00 0.00 50 1016.2
20260506204624 63 10 1.7 5.2 0.00 0.00 0.00 49 1016.5
20260506204121 62 40 1.7 3.5 0.00 0.00 0.00 51 1016.5
20260506203619 62 29 0.9 7.0 0.00 0.00 0.00 51 1016.6
20260506203115 62 359 2.6 8.7 0.00 0.00 0.00 52 1016.8
20260506202614 62 115 0.9 7.0 0.00 0.00 0.00 53 1016.5
20260506202109 61 55 1.7 8.7 0.00 0.00 0.00 53 1016.6
20260506201607 62 3 1.7 7.8 0.00 0.00 0.00 53 1016.6
20260506201103 62 22 1.7 8.7 0.00 0.00 0.00 52 1016.7
20260506200559 60 15 3.5 7.8 0.00 0.00 0.00 54 1016.7
20260506200056 61 9 7.0 8.7 0.00 0.00 0.00 54 1016.8
20260506195553 61 11 2.6 6.1 0.00 0.00 0.00 54 1016.9
20260506195049 60 21 0.9 6.1 0.00 0.00 0.00 57 1016.8
20260506194547 60 35 2.6 6.1 0.00 0.00 0.00 57 1016.9
20260506194043 60 359 0.9 5.2 0.00 0.00 0.00 56 1017.1
20260506193541 60 308 3.5 6.1 0.00 0.00 0.00 55 1017.0
20260506193038 60 47 4.3 6.1 0.00 0.00 0.00 56 1017.1
20260506192535 60 8 5.2 7.0 0.00 0.00 0.00 56 1017.0
20260506192031 59 13 3.5 7.8 0.00 0.00 0.00 58 1017.2
20260506191528 59 58 4.3 11.3 0.00 0.00 0.00 57 1017.4
20260506191023 59 45 3.5 11.3 0.00 0.00 0.00 57 1017.6
20260506190521 60 42 3.5 6.1 0.00 0.00 0.00 58 1017.4
20260506190019 59 88 6.1 8.7 0.00 0.00 0.00 57 1017.6
20260506185515 59 74 3.5 7.0 0.00 0.00 0.00 58 1017.5
20260506185012 59 17 2.6 7.8 0.00 0.00 0.00 58 1017.6
20260506184509 60 50 0.9 5.2 0.00 0.00 0.00 58 1017.2
20260506184006 60 40 3.5 6.1 0.00 0.00 0.00 57 1017.6
20260506183501 59 74 1.7 5.2 0.00 0.00 0.00 58 1017.5
20260506182959 59 42 4.3 7.8 0.00 0.00 0.00 57 1017.7
20260506182456 59 59 3.5 8.7 0.00 0.00 0.00 58 1017.8
20260506181953 59 3 1.7 5.2 0.00 0.00 0.00 59 1017.8
20260506181451 59 77 5.2 6.1 0.00 0.00 0.00 57 1017.6
20260506180947 58 353 6.1 8.7 0.00 0.00 0.00 59 1017.9
20260506180444 58 57 5.2 7.8 0.00 0.00 0.00 58 1017.9
20260506175941 59 36 6.1 13.9 0.00 0.00 0.00 58 1017.9
20260506175437 58 45 3.5 7.8 0.00 0.00 0.00 59 1017.8
20260506174934 59 11 1.7 6.1 0.00 0.00 0.00 59 1017.9
20260506174432 60 6 7.8 12.2 0.00 0.00 0.00 57 1017.9
20260506173928 60 53 0.0 6.1 0.00 0.00 0.00 57 1018.1
20260506173426 58 46 5.2 9.6 0.00 0.00 0.00 59 1018.1
20260506172923 59 49 3.5 6.1 0.00 0.00 0.00 57 1017.9
20260506172420 59 89 5.2 7.8 0.00 0.00 0.00 56 1017.9
20260506171917 58 52 2.6 7.0 0.00 0.00 0.00 58 1018.1
20260506171414 59 30 7.8 9.6 0.00 0.00 0.00 58 1018.2
20260506170912 58 25 0.9 9.6 0.00 0.00 0.00 59 1018.4
20260506170407 58 58 2.6 5.2 0.00 0.00 0.00 58 1018.1
20260506165907 58 50 2.6 11.3 0.00 0.00 0.00 60 1018.4
20260506165404 59 4 4.3 7.0 0.00 0.00 0.00 59 1017.9
20260506164901 57 358 2.6 7.0 0.00 0.00 0.00 61 1018.2
20260506164357 58 132 3.5 9.6 0.00 0.00 0.00 59 1018.1
20260506163856 56 57 3.5 8.7 0.00 0.00 0.00 63 1018.2
20260506163355 56 40 6.1 11.3 0.00 0.00 0.00 62 1018.5
20260506162850 56 23 5.2 9.6 0.00 0.00 0.00 62 1018.3
20260506162349 57 21 5.2 8.7 0.00 0.00 0.00 61 1018.3
20260506161846 57 10 2.6 7.8 0.00 0.00 0.00 62 1018.2
20260506161343 56 48 2.6 8.7 0.00 0.00 0.00 63 1018.1
20260506160841 55 46 2.6 13.0 0.00 0.00 0.00 65 1018.0
20260506160338 55 59 3.5 9.6 0.00 0.00 0.00 64 1018.0
20260506155836 56 22 3.5 8.7 0.00 0.00 0.00 65 1018.0
20260506155332 55 70 2.6 7.8 0.00 0.00 0.00 65 1018.2
20260506153444 54 54 0.9 8.7 0.00 0.00 0.00 67 1017.8
20260506152942 54 47 8.7 11.3 0.00 0.00 0.00 65 1018.0
20260506152439 54 26 7.8 11.3 0.00 0.00 0.00 66 1018.0
20260506151937 54 47 7.8 9.6 0.00 0.00 0.00 66 1018.0
20260506151434 53 54 4.3 13.0 0.00 0.00 0.00 66 1018.0
20260506150932 53 41 7.8 11.3 0.00 0.00 0.00 66 1017.9
20260506150428 53 40 7.8 9.6 0.00 0.00 0.00 67 1018.0
20260506145925 53 46 5.2 8.7 0.00 0.00 0.00 68 1017.9
20260506145421 52 50 1.7 7.8 0.00 0.00 0.00 70 1017.8
20260506144919 52 31 2.6 9.6 0.00 0.00 0.00 71 1017.6
20260506144415 51 68 7.0 11.3 0.00 0.00 0.00 71 1017.5
20260506143913 51 40 7.0 13.9 0.00 0.00 0.00 71 1017.5
20260506143410 51 10 4.3 9.6 0.00 0.00 0.00 74 1017.4
20260506142908 51 346 6.1 7.8 0.00 0.00 0.00 74 1017.6
20260506142406 50 67 6.1 12.2 0.00 0.00 0.00 75 1017.6
20260506141904 50 40 4.3 7.8 0.00 0.00 0.00 78 1017.4
20260506141402 49 42 7.8 12.2 0.00 0.00 0.00 79 1017.1
20260506140900 49 47 6.1 9.6 0.00 0.00 0.00 79 1017.5
20260506140356 49 43 3.5 12.2 0.00 0.00 0.00 80 1017.4
20260506135853 49 45 8.7 11.3 0.00 0.00 0.00 80 1017.4
20260506135350 49 48 5.2 7.0 0.00 0.00 0.00 81 1017.6
20260506134846 49 34 6.1 11.3 0.00 0.00 0.00 81 1017.5
20260506134342 49 46 3.5 8.7 0.00 0.00 0.00 82 1017.6
20260506133840 48 25 6.1 9.6 0.00 0.00 0.00 83 1017.7
20260506133337 48 8 4.3 5.2 0.00 0.00 0.00 84 1017.8
20260506132833 48 339 3.5 6.1 0.00 0.00 0.00 84 1017.7
20260506132331 48 16 5.2 8.7 0.00 0.00 0.00 84 1017.7
20260506131828 48 335 3.5 6.1 0.00 0.00 0.00 85 1017.4
20260506131324 48 15 2.6 13.0 0.00 0.00 0.00 85 1017.2
20260506130822 48 40 3.5 6.1 0.00 0.00 0.00 85 1017.5
20260506130318 48 33 6.1 9.6 0.00 0.00 0.00 85 1017.5
20260506125816 48 31 7.8 12.2 0.00 0.00 0.00 85 1017.5
20260506125314 48 34 5.2 9.6 0.00 0.00 0.00 85 1017.0
20260506124813 48 39 3.5 8.7 0.00 0.00 0.00 86 1017.1
20260506124309 48 19 4.3 8.7 0.00 0.00 0.00 85 1016.9
20260506123807 48 39 3.5 7.8 0.00 0.00 0.00 86 1016.9
20260506123305 48 3 3.5 9.6 0.00 0.00 0.00 85 1016.9
20260506122801 48 45 4.3 7.8 0.00 0.00 0.00 85 1016.8
20260506122259 48 26 5.2 8.7 0.00 0.00 0.00 85 1016.7
20260506121757 47 52 2.6 7.8 0.00 0.00 0.00 86 1016.9
20260506121253 47 24 2.6 3.5 0.00 0.00 0.00 86 1016.4
20260506120751 47 32 3.5 7.0 0.00 0.00 0.00 86 1016.2
20260506120249 47 14 4.3 6.1 0.00 0.00 0.00 86 1016.3
20260506115746 47 35 3.5 6.1 0.00 0.00 0.00 86 1016.2
20260506115244 47 46 3.5 7.0 0.00 0.00 0.00 86 1016.2
20260506114741 47 29 3.5 7.8 0.00 0.00 0.00 86 1016.2
20260506114239 47 9 5.2 7.0 0.00 0.00 0.00 86 1016.0
20260506113737 47 26 5.2 6.1 0.00 0.00 0.00 85 1016.2
20260506113234 47 22 2.6 7.8 0.00 0.00 0.00 85 1016.1
20260506112730 47 18 3.5 6.1 0.00 0.00 0.00 85 1016.2
20260506112228 47 342 1.7 7.0 0.00 0.00 0.00 85 1015.8
20260506111726 47 49 3.5 5.2 0.00 0.00 0.00 85 1015.8
20260506111224 47 2 2.6 3.5 0.00 0.00 0.00 85 1015.9
20260506110721 48 27 4.3 7.8 0.00 0.00 0.00 85 1015.8
20260506110218 48 351 2.6 5.2 0.00 0.00 0.00 85 1015.7
20260506105714 48 7 2.6 5.2 0.00 0.00 0.00 85 1016.0
20260506105211 48 26 2.6 2.6 0.00 0.00 0.00 85 1016.4
20260506104709 48 345 3.5 5.2 0.00 0.00 0.00 84 1016.6
20260506104207 48 41 2.6 5.2 0.00 0.00 0.00 84 1016.8
20260506103703 48 345 1.7 3.5 0.00 0.00 0.00 84 1016.9
20260506103200 48 343 0.9 5.2 0.00 0.00 0.00 84 1016.3
20260506102659 48 26 1.7 2.6 0.00 0.00 0.00 84 1016.4
20260506102156 48 26 1.7 2.6 0.00 0.00 0.00 84 1016.5
20260506101653 48 318 1.7 2.6 0.00 0.00 0.00 83 1016.3
20260506101149 48 44 3.5 3.5 0.00 0.00 0.00 83 1016.3
20260506100648 48 17 1.7 3.5 0.00 0.00 0.00 83 1016.1
20260506100145 48 22 0.9 5.2 0.00 0.00 0.00 83 1016.0
20260506095644 48 25 1.7 5.2 0.00 0.00 0.00 83 1015.9
20260506095140 48 351 2.6 6.1 0.00 0.00 0.00 83 1015.9
20260506094638 48 47 1.7 3.5 0.00 0.00 0.00 83 1015.6
20260506094135 48 43 3.5 6.1 0.00 0.00 0.00 83 1015.5
20260506093634 48 45 2.6 5.2 0.00 0.00 0.00 83 1015.5
20260506093130 48 3 2.6 2.6 0.00 0.00 0.00 83 1015.3
20260506092628 48 16 0.9 2.6 0.00 0.00 0.00 83 1015.1
20260506092125 48 51 2.6 3.5 0.00 0.00 0.00 83 1015.0
20260506091623 48 38 2.6 3.5 0.00 0.00 0.00 82 1015.0
20260506091120 48 340 3.5 6.1 0.00 0.00 0.00 82 1015.1
20260506090619 48 7 0.9 3.5 0.00 0.00 0.00 82 1015.1
20260506090114 48 15 1.7 3.5 0.00 0.00 0.00 81 1015.0
20260506085611 48 37 2.6 3.5 0.00 0.00 0.00 81 1015.2
20260506085108 48 20 2.6 5.2 0.00 0.00 0.00 81 1015.0
20260506084604 48 26 1.7 2.6 0.00 0.00 0.00 81 1015.1
20260506084101 48 27 0.9 7.0 0.00 0.00 0.00 81 1014.8
20260506083558 48 322 4.3 6.1 0.00 0.00 0.00 81 1014.5
20260506083055 48 50 1.7 5.2 0.00 0.00 0.00 80 1014.6
20260506082552 48 328 6.1 7.8 0.00 0.00 0.00 80 1014.0
20260506082048 48 339 3.5 6.1 0.00 0.00 0.00 79 1014.2
20260506081546 48 337 5.2 7.8 0.00 0.00 0.00 79 1014.0
20260506081043 48 340 3.5 7.8 0.00 0.00 0.00 79 1014.2
20260506080541 48 338 3.5 6.1 0.00 0.00 0.00 79 1014.1
20260506073524 48 48 2.6 7.0 0.00 0.00 0.00 78 1013.7
20260506073021 48 47 2.6 6.1 0.00 0.00 0.00 78 1013.6
20260506072518 48 26 2.6 3.5 0.00 0.00 0.00 78 1013.7
20260506072016 48 28 2.6 6.1 0.00 0.00 0.00 78 1013.5
20260506071514 48 14 5.2 7.0 0.00 0.00 0.00 78 1013.5
20260506071011 48 43 2.6 7.8 0.00 0.00 0.00 78 1013.4
20260506070508 48 51 3.5 7.8 0.00 0.00 0.00 77 1013.6
20260506062445 48 7 2.6 6.1 0.00 0.00 0.00 78 1013.6
20260506061941 48 5 4.3 5.2 0.00 0.00 0.00 78 1013.4
20260506061437 48 33 1.7 5.2 0.00 0.00 0.00 78 1013.5
20260506060936 48 24 5.2 7.0 0.00 0.00 0.00 77 1013.6